Location: Homewood
(41.1836°S, 175.9581°E)
Time: 20:25:12
(UTC+00:00)

CZ-2D R/B - Visible Passes

Search period start: 23 July 2024 00:00
Search period end: 02 August 2024 00:00
Orbit: 538 x 616 km, 98.0° (Epoch: 23 July)

Date Brightness Start Highest point End Pass type
(mag) Time Alt. Az. Time Alt. Az. Time Alt. Az.
23 Jul 3.5 05:52:24 10° SSE 05:56:45 72° ENE 06:00:55 10° N visible
23 Jul 6.6 07:29:57 10° SW 07:31:18 11° WSW 07:32:38 10° W visible
23 Jul 5.7 16:40:32 10° NE 16:42:03 21° NE 16:42:03 21° NE visible
23 Jul 5.5 18:17:37 10° NW 18:18:20 12° WNW 18:18:20 12° WNW visible
24 Jul 3.5 05:56:26 10° SSE 06:00:46 79° ENE 06:04:56 10° N visible
24 Jul 6.7 07:34:44 10° SW 07:35:17 10° WSW 07:35:49 10° WSW visible
24 Jul 5.5 16:44:29 10° NNE 16:46:16 24° NE 16:46:16 24° NE visible
24 Jul 5.6 18:21:58 10° WNW 18:22:32 12° WNW 18:22:32 12° WNW visible
25 Jul 3.5 06:00:28 10° SSE 06:04:48 87° ENE 06:08:58 10° NNW visible
25 Jul 5.3 16:48:27 10° NNE 16:50:29 27° NE 16:50:29 27° NE visible
25 Jul 5.6 18:26:24 10° WNW 18:26:46 11° WNW 18:26:46 11° WNW visible
26 Jul 3.6 06:04:29 10° SSE 06:08:48 84° WSW 06:12:57 10° NNW visible
26 Jul 5.0 16:52:25 10° NNE 16:54:41 30° NE 16:54:41 30° NE visible
26 Jul 5.7 18:30:56 10° WNW 18:30:57 10° WNW 18:30:57 10° WNW visible
27 Jul 3.7 06:08:29 10° S 06:12:48 77° WSW 06:16:55 10° NNW visible
27 Jul 4.8 16:56:22 10° NNE 16:58:53 35° NNE 16:58:53 35° NNE visible
28 Jul 3.8 06:12:30 10° S 06:16:46 69° WSW 06:20:52 10° NNW visible
28 Jul 4.5 17:00:19 10° NNE 17:03:05 40° NNE 17:03:05 40° NNE visible
29 Jul 4.0 06:16:31 10° S 06:20:44 62° WSW 06:24:47 10° NNW visible
29 Jul 4.3 17:04:17 10° NNE 17:07:17 45° NNE 17:07:17 45° NNE visible
30 Jul 4.2 06:20:30 10° S 06:24:40 56° WSW 06:28:41 10° NNW visible
30 Jul 4.0 17:08:14 10° NNE 17:11:29 51° N 17:11:29 51° N visible
31 Jul 4.4 06:24:29 10° S 06:28:36 50° WSW 06:32:34 10° NNW visible
31 Jul 3.8 17:12:10 10° N 17:15:40 57° N 17:15:40 57° N visible
01 Aug 4.6 06:28:28 10° S 06:32:31 45° WSW 06:36:25 10° NW visible
01 Aug 3.6 17:16:07 10° N 17:19:52 61° NNW 17:19:52 61° NNW visible
